| time (UTC) | temp F | wind direction | speed MPH | gust MPH | rain 1hr in | rain 24hr in | rain mn in | humidity % | barometer mb |
| 20260504212704 | 86 | 130 | 5.0 | 11.0 | 0.00 | 0.00 | 0.00 | 73 | 1010.2 |
| 20260504211826 | 86 | 143 | 4.0 | 11.0 | 0.00 | 0.00 | 0.00 | 73 | 1010.0 |
| 20260504210905 | 86 | 150 | 4.0 | 8.0 | 0.00 | 0.00 | 0.00 | 73 | 1010.1 |
| 20260504210005 | 86 | 143 | 4.0 | 11.0 | 0.00 | 0.00 | 0.00 | 73 | 1010.2 |
| 20260504205404 | 86 | 174 | 4.0 | 8.0 | 0.00 | 0.00 | 0.00 | 73 | 1009.9 |
| 20260504204504 | 86 | 166 | 4.0 | 10.0 | 0.00 | 0.00 | 0.00 | 73 | 1010.0 |
| 20260504203605 | 86 | 194 | 4.0 | 10.0 | 0.00 | 0.00 | 0.00 | 73 | 1009.9 |
| 20260504202725 | 86 | 166 | 6.0 | 10.0 | 0.00 | 0.00 | 0.00 | 73 | 1009.9 |
| 20260504201804 | 86 | 145 | 5.0 | 13.0 | 0.00 | 0.00 | 0.00 | 73 | 1009.8 |
| 20260504200926 | 86 | 176 | 5.0 | 15.0 | 0.00 | 0.00 | 0.00 | 73 | 1009.8 |
| 20260504200005 | 86 | 167 | 6.0 | 10.0 | 0.00 | 0.00 | 0.00 | 73 | 1010.1 |
| 20260504195426 | 86 | 179 | 6.0 | 11.0 | 0.00 | 0.00 | 0.00 | 73 | 1010.1 |
| 20260504194505 | 86 | 180 | 6.0 | 17.0 | 0.00 | 0.00 | 0.00 | 73 | 1010.2 |
| 20260504193604 | 86 | 187 | 6.0 | 13.0 | 0.00 | 0.00 | 0.00 | 73 | 1010.3 |
| 20260504192705 | 86 | 188 | 6.0 | 13.0 | 0.00 | 0.00 | 0.00 | 73 | 1010.1 |
| 20260504191805 | 86 | 205 | 7.0 | 14.0 | 0.00 | 0.00 | 0.00 | 73 | 1010.1 |
| 20260504190904 | 86 | 148 | 6.0 | 9.0 | 0.00 | 0.00 | 0.00 | 73 | 1010.3 |
| 20260504190005 | 86 | 158 | 4.0 | 8.0 | 0.00 | 0.00 | 0.00 | 73 | 1010.2 |
| 20260504185405 | 86 | 172 | 6.0 | 9.0 | 0.00 | 0.00 | 0.00 | 73 | 1010.4 |
| 20260504184504 | 86 | 178 | 6.0 | 13.0 | 0.00 | 0.00 | 0.00 | 73 | 1010.7 |
| 20260504183626 | 86 | 193 | 5.0 | 10.0 | 0.00 | 0.00 | 0.00 | 73 | 1010.5 |
| 20260504182704 | 86 | 182 | 6.0 | 9.0 | 0.00 | 0.00 | 0.00 | 73 | 1010.6 |
| 20260504181805 | 86 | 181 | 5.0 | 9.0 | 0.00 | 0.00 | 0.00 | 73 | 1010.7 |
| 20260504180905 | 86 | 197 | 6.0 | 10.0 | 0.00 | 0.00 | 0.00 | 73 | 1010.7 |
| 20260504180005 | 86 | 155 | 4.0 | 8.0 | 0.00 | 0.00 | 0.00 | 73 | 1010.8 |
| 20260504175405 | 86 | 140 | 5.0 | 10.0 | 0.00 | 0.00 | 0.00 | 73 | 1010.7 |
| 20260504174505 | 86 | 171 | 5.0 | 9.0 | 0.00 | 0.00 | 0.00 | 73 | 1011.0 |
| 20260504173605 | 86 | 208 | 6.0 | 10.0 | 0.00 | 0.00 | 0.00 | 73 | 1011.0 |
| 20260504172705 | 86 | 177 | 5.0 | 9.0 | 0.00 | 0.00 | 0.00 | 73 | 1011.2 |
| 20260504171805 | 86 | 140 | 5.0 | 9.0 | 0.00 | 0.00 | 0.00 | 73 | 1011.4 |
| 20260504170905 | 86 | 165 | 5.0 | 9.0 | 0.00 | 0.00 | 0.00 | 73 | 1011.3 |
| 20260504150904 | 86 | 176 | 6.0 | 10.0 | 0.00 | 0.00 | 0.00 | 73 | 1012.3 |